Orbital Elements at Epoch 2459200.5 (2020-Dec-17.0) TDB
Reference: JPL 25 (heliocentric ecliptic J2000)
Element | Value | Uncertainty (1-sigma) | Units |
e | .08032073418567999 | 3.1826e-08 | |
a | 2.763000051351194 | 1.6465e-08 | au |
q | 2.541073858671595 | 8.9233e-08 | au |
i | 6.037842892742274 | 3.8844e-06 | deg |
node | 57.52919869652121 | 3.5978e-05 | deg |
peri | 68.40062332181743 | 4.6031e-05 | deg |
M | 28.681891598414 | 2.7055e-05 | deg |
tp | 2459066.848125055614 (2020-Aug-05.34812506) | 0.00012613 | TDB |
period | 1677.527955744715 4.59 | 1.4995e-05 4.105e-08 | d yr |
n | .214601490703732 | 1.9182e-09 | deg/d |
Q | 2.984926244030793 | 1.7787e-08 | au |
|
| | Orbit Determination Parameters
Additional Information
|